Ardmore, OK

3:31 PM CDT on May 25, 2017 (GMT -0500)
Ardmore Municipal

Weather History for KADM - September, 2012

Change the Weather History Date:

Tuesday, September 25, 2012

  Actual Average Record
Temperature  
Mean Temperature 84 °F -  
Max Temperature 93 °F 81 °F 95 °F (2005)
Min Temperature 75 °F 58 °F 44 °F (2000)
Cooling Degree Days 19    
Growing Degree Days 34 (Base 50)    
Moisture  
Dew Point 61 °F    
Average Humidity 54    
Maximum Humidity 69    
Minimum Humidity 34    
Precipitation  
Precipitation 0.00 in - - ()
Sea Level Pressure  
Sea Level Pressure 29.92 in    
Wind  
Wind Speed 10 mph (SSW)    
Max Wind Speed 21 mph    
Max Gust Speed 28 mph    
Visibility 10 miles    
Events      
Averages and records for this station are not official NWS values.
T = Trace of Precipitation, MM = Missing Value Source: NWS Daily Summary

Daily Weather History Graph

Daily Weather History Graph

Search for Another Location

Airport or City:

Trip Planner

Search our weather history database for the weather conditions in past years. The results will help you decide how hot, cold, wet, or windy it might be!

Date:

Astronomy

Sep. 25, 2012 Rise Set
Actual Time 7:18 AM CDT 7:19 PM CDT
Civil Twilight 6:53 AM CDT 7:44 PM CDT
Nautical Twilight 6:24 AM CDT 8:13 PM CDT
Astronomical Twilight 5:55 AM CDT 8:43 PM CDT
Moon 4:36 PM CDT 2:52 AM CDT
Length of Visible Light 12h 51m
Length of Day
12h 01m
Waxing Gibbous, 80% of the Moon is Illuminated
Sep 25
Waxing Gibbous
Sep 29
Full
Oct 8
Last Quarter
Oct 15
New
Oct 21
First Quarter

Hourly Weather History & Observations

Time (CDT) Temp. Heat Index Dew Point Humidity Pressure Visibility Wind Dir Wind Speed Gust Speed Precip Events Conditions
12:15 AM 80.6 °F 80.5 °F 55.4 °F 42% 29.92 in 10.0 mi South 12.7 mph 17.3 mph N/A   Clear
12:35 AM 80.6 °F 80.8 °F 57.2 °F 45% 29.92 in 10.0 mi South 8.1 mph - N/A   Clear
12:55 AM 80.6 °F 81.1 °F 59.0 °F 48% 29.92 in 10.0 mi South 10.4 mph 17.3 mph N/A   Clear
1:15 AM 80.6 °F 81.1 °F 59.0 °F 48% 29.92 in 10.0 mi South 8.1 mph - N/A   Clear
1:35 AM 80.6 °F 81.1 °F 59.0 °F 48% 29.93 in 10.0 mi SSW 9.2 mph 17.3 mph N/A   Clear
1:55 AM 80.6 °F 81.5 °F 60.8 °F 51% 29.93 in 10.0 mi South 9.2 mph - N/A   Clear
2:15 AM 80.6 °F 81.5 °F 60.8 °F 51% 29.92 in 10.0 mi South 10.4 mph - N/A   Clear
2:35 AM 78.8 °F - 60.8 °F 54% 29.92 in 10.0 mi South 8.1 mph - N/A   Clear
2:55 AM 78.8 °F - 60.8 °F 54% 29.92 in 10.0 mi South 8.1 mph - N/A   Clear
3:15 AM 78.8 °F - 60.8 °F 54% 29.92 in 10.0 mi South 5.8 mph - N/A   Clear
3:35 AM 77.0 °F - 62.6 °F 61% 29.92 in 10.0 mi South 6.9 mph - N/A   Clear
3:55 AM 78.8 °F - 62.6 °F 57% 29.92 in 10.0 mi South 10.4 mph - N/A   Clear
4:15 AM 78.8 °F - 62.6 °F 57% 29.92 in 10.0 mi SSW 12.7 mph 17.3 mph N/A   Clear
4:35 AM 78.8 °F - 62.6 °F 57% 29.92 in 10.0 mi South 11.5 mph 18.4 mph N/A   Clear
4:55 AM 77.0 °F - 62.6 °F 61% 29.93 in 10.0 mi SSW 11.5 mph 17.3 mph N/A   Clear
5:15 AM 77.0 °F - 64.4 °F 65% 29.93 in 10.0 mi SSW 9.2 mph - N/A   Clear
5:35 AM 77.0 °F - 64.4 °F 65% 29.94 in 10.0 mi SSW 10.4 mph - N/A   Clear
5:55 AM 77.0 °F - 64.4 °F 65% 29.94 in 10.0 mi South 6.9 mph - N/A   Clear
6:15 AM 75.2 °F - 64.4 °F 69% 29.94 in 10.0 mi SSW 9.2 mph - N/A   Clear
6:35 AM 75.2 °F - 62.6 °F 65% 29.94 in 10.0 mi South 8.1 mph - N/A   Clear
1:55 PM 93.2 °F 93.3 °F 60.8 °F 34% 29.88 in 10.0 mi South 20.7 mph 27.6 mph N/A   Clear
11:35 PM 82.4 °F 82.5 °F 59.0 °F 45% 29.90 in 10.0 mi SSW 8.1 mph - N/A   Clear
11:55 PM 82.4 °F 82.5 °F 59.0 °F 45% 29.92 in 10.0 mi SSW 5.8 mph - N/A   Clear